WEATHER DATA

YESTERDAY
Time Temp. Dewp. Hum. Bar.
00:04 18.5 13.4 72 1014.4
00:14 18.4 13.3 72 1014.3
00:24 18.3 13.4 73 1014.4
00:34 18.2 13.3 73 1014.3
00:44 18 13.3 74 1014.5
00:54 17.9 13.2 74 1014.8
01:04 17.8 13.3 75 1014.6
01:14 17.7 13.2 75 1014.8
01:25 17.6 13.3 76 1014.9
01:35 17.5 13.2 76 1014.7
01:44 17.5 13.2 76 1014.6
02:00 17.3 13.2 77 1014.5
02:09 17.2 13.1 77 1014.3
02:19 17.1 13 77 1014.5
02:30 16.8 13.1 79 1014.5
02:40 16.8 13.1 79 1014.5
02:50 16.7 13 79 1014.6
02:59 16.7 13.2 80 1014.3
03:10 16.6 13.1 80 1014.4
03:20 16.5 13 80 1014.4
03:30 16.4 12.9 80 1014.4
03:40 16.3 13 81 1014.3
03:50 16.2 12.7 80 1014.5
04:00 16.1 12.8 81 1014.5
04:10 15.9 12.6 81 1014.6
04:21 15.9 12.6 81 1014.7
04:30 15.8 12.5 81 1014.7
04:40 15.6 12.4 81 1014.6
04:50 15.5 12.4 82 1014.8
05:01 15.4 12.3 82 1014.8
05:10 15.2 12 81 1014.9
05:20 15.1 12.1 82 1015
05:31 15 12 82 1015.1
05:41 14.9 12 83 1015.3
05:51 14.8 11.9 83 1015.3
06:01 14.8 11.9 83 1015.5
06:11 14.8 11.9 83 1015.5
06:21 14.8 11.9 83 1015.4
06:31 14.7 12 84 1015.3
06:41 14.7 12 84 1015.3
06:51 14.7 12 84 1015.6
07:01 14.8 12.1 84 1015.8
07:11 14.9 12.4 85 1015.7
07:20 15 12.5 85 1016.1
07:31 15 12.5 85 1016.3
07:41 15 12.5 85 1016.2
07:52 15.1 12.6 85 1016.2
08:02 15.1 12.8 86 1016.3
08:11 15.2 12.9 86 1016.1
08:22 15.3 13 86 1016.3
08:32 15.4 13.1 86 1016.4
08:42 15.5 13.2 86 1016.6
08:51 15.7 13.4 86 1016.6
09:02 15.8 13.5 86 1016.6
09:12 15.9 13.6 86 1016.6
09:22 16 13.7 86 1016.8
09:32 16.1 13.8 86 1016.8
09:42 16.2 13.9 86 1016.9
09:52 16.4 13.9 85 1016.8
10:02 16.6 14.1 85 1016.9
10:13 16.8 14.1 84 1017
10:22 17 14.1 83 1017
10:32 17.2 13.9 81 1017
10:43 17.3 13.8 80 1017
10:53 17.5 13.8 79 1017
11:03 17.8 13.9 78 1017
11:12 18.1 14.2 78 1017.1
11:23 18.3 14.4 78 1017.2
11:33 18.6 14.5 77 1016.9
11:43 18.9 14.4 75 1017.1
11:53 19 14.3 74 1016.9
12:03 19.2 14.2 73 1016.9
12:13 19.5 14.5 73 1017
12:23 19.8 14.4 71 1016.8
12:33 19.8 14 69 1016.8
12:43 19.9 14 69 1016.6
12:53 20.2 14.1 68 1016.6
13:04 20.4 14.3 68 1016.4
13:14 20.7 14.1 66 1016.6
13:23 21.1 14.5 66 1016.5
13:33 21.5 14.9 66 1016.4
13:44 21.8 14.7 64 1016.3
13:54 22.1 14.5 62 1016.2
14:03 22.1 14.7 63 1016.2
14:14 22.5 15.1 63 1016
14:24 22.7 15.1 62 1016.2
14:34 23.1 15.2 61 1015.8
14:44 23.3 14.8 59 1015.8
14:54 23.4 14.9 59 1015.9
15:04 23.7 14.7 57 1015.9
15:14 23.4 13.9 55 1015.7
15:25 23.7 13.8 54 1015.7
15:34 23.6 13.2 52 1015.7
15:44 23.9 14.3 55 1015.5
15:54 24.3 14.1 53 1015.4
16:05 24.4 14.2 53 1015.4
16:15 24.4 14.2 53 1015.3
16:24 24.7 13.9 51 1015.4
16:35 24.8 13.4 49 1015.4
16:45 24.9 13.8 50 1015.4
16:55 24.9 14.1 51 1015.4
17:04 24.2 14.6 55 1015.6
17:15 23.3 14 56 1015.9
17:25 21.5 14.9 66 1016.1
17:35 20.7 15 70 1016
17:46 20.2 15.2 73 1016.1
17:55 19.9 14.7 72 1015.9
18:05 20 14.6 71 1015.9
18:15 20 14.8 72 1015.8
18:26 19.9 14.7 72 1015.8
18:35 20 14.4 70 1015.8
18:45 20.1 15.1 73 1015.8
18:56 20.5 15.3 72 1015.7
19:06 20.9 15.2 70 1015.9
19:16 20.9 14.8 68 1015.8
19:25 21.1 15 68 1015.7
19:36 21.2 15.3 69 1015.9
19:46 21.4 15.3 68 1016
19:56 21.6 15.2 67 1016.2
20:06 21.6 15.2 67 1016.3
20:16 21.4 15 67 1016.3
20:26 21.4 15 67 1016.6
20:36 21.1 15 68 1016.6
20:47 20.9 15 69 1016.6
20:56 20.9 15.2 70 1016.6
21:06 20.8 15.1 70 1016.6
21:17 20.7 15 70 1016.7
21:27 20.5 15.1 71 1016.7
21:37 20.5 15.3 72 1016.8
21:46 20.2 14.8 71 1016.8
21:57 20 14.8 72 1016.9
22:07 19.9 14.9 73 1017.2
22:17 19.9 14.9 73 1017.2
22:27 19.8 15 74 1017.3
22:37 19.5 15.2 76 1017.3
22:47 19.3 15 76 1017.3
22:57 19.2 15.1 77 1017.3
23:08 19 15.1 78 1017.3
23:17 19 15.1 78 1017.5
23:27 19 15.3 79 1017.4
23:38 19 15.3 79 1017.6
23:48 18.8 14.9 78 1017.3
23:57 18.7 15 79 1017.4

DAY STATISTIC

2018-05-23
TEMPERATURE
AVERAGE
18.8
HIGH
24.9
16:45
LOW
14.7
06:31
PRESSURE
AVERAGE
1015.9
HIGH
1017.6
23:38
LOW
1014.3
00:14
DEWPOINT
AVERAGE
13.9
HIGH
15.3
18:56
LOW
11.9
05:51
HUMIDITY
AVERAGE
74
HIGH
86
08:02
LOW
49
16:35
TEMPERATURE (°C)
LOW
14.7
HIGH
24.9
AVERAGE
18.8
PRESSURE (hpa)
LOW
1014.3
HIGH
1017.6
AVERAGE
1015.9
DEVICE